Volver al catálogo

GLOBALSTAR M082

ActivoComunicacionesLEO
NORAD 38042·PAYLOAD·🇺🇸 United States

Lanzado Dec 28, 2011 desde Baikonur Cosmodrome

Loading…

Próximos Pases (próximas 24 horas)

TLE

ActualizadoSource: Space-Track

Época: Sep 14, 2026, 11:45 UTC

1 38042U 11080C   26257.48964758 -.00000116  00000-0 -66871-4 0  9992
2 38042  52.0074  62.6711 0000956 104.5240 290.1493 12.62262840680876

Sigue GLOBALSTAR M082 en tiempo real con AllMySat

Download on the App Store